[[{"header":{"parameterUnit":"m.s-1","parameterCategory":1,"la1":30.2991,"la2":30.254,"lo1":-89.0895,"lo2":-89.0444,"dy":0.0017,"dx":0.0017,"nx":28,"ny":28,"refTime":"2025-07-24T21:00:00:Z","depth":0,"parameterNumber":2,"parameterNumberName":"U-component_of_WINDS"},"data":[0,0,0,0,0,0,0,0,0,0,0,0,0,0,0,0,0,0,0,0,0,0,0,0,0,0,0,0,0,0,0,0,0,0,0,0,0,0,0,0,0,0,0,0,0,0,0,0,0,0,0,0,0,0,0,0,0,0,-1.7092,-1.7092,0,-1.714,-1.714,-1.7141,-1.72,-1.7201,-1.7202,-1.7203,-1.725,-1.725,-1.725,0,0,0,0,0,0,0,0,0,0,0,0,0,-1.705,-1.7051,-1.7092,-1.7092,-1.7093,-1.714,-1.714,-1.7141,-1.72,-1.7201,-1.7202,-1.7203,-1.7249,-1.725,-1.725,0,0,0,0,0,0,0,0,0,0,0,0,0,-1.708,-1.7051,-1.7092,-1.7128,-1.7132,-1.7139,-1.714,-1.7141,-1.7199,-1.7201,-1.7202,-1.7204,-1.7249,-1.725,-1.725,-1.7226,0,0,-1.7252,-1.7252,0,0,0,0,0,0,0,0,-1.7078,-1.7082,-1.7122,-1.7126,-1.713,-1.7165,-1.7143,-1.7169,-1.7199,-1.7174,-1.7203,-1.7204,-1.722,-1.7223,-1.7229,-1.7228,-1.723,-1.7252,-1.7252,-1.7253,-1.7253,0,0,0,0,0,0,0,-1.7076,-1.708,-1.7111,-1.7123,-1.7127,-1.7142,-1.7147,-1.7148,-1.7188,-1.7176,-1.718,-1.7185,-1.7223,-1.7228,-1.7231,-1.7231,-1.7252,-1.7253,-1.7253,-1.7253,-1.7213,-1.7211,0,0,0,0,0,0,-1.7069,-1.7078,-1.7109,-1.7112,-1.7107,-1.7141,-1.7148,-1.7152,-1.7189,-1.7195,-1.7184,-1.7188,-1.7227,-1.723,-1.7232,-1.7206,-1.7253,-1.7253,-1.7254,-1.7214,-1.7212,-1.7211,0,0,0,0,0,0,-1.7068,-1.7071,-1.7107,-1.7096,-1.7102,-1.714,-1.7145,-1.7153,-1.7159,-1.7195,-1.7202,-1.7183,-1.7228,-1.7232,-1.7227,-1.7209,-1.7253,-1.7254,-1.7216,-1.7213,-1.7211,-1.7153,0,0,0,0,0,0,-1.7066,-1.707,-1.7061,-1.7096,-1.7102,-1.7101,-1.7144,-1.7153,-1.716,-1.7165,-1.7195,-1.7202,-1.7229,-1.7226,-1.7228,-1.721,-1.7254,-1.7217,-1.7215,-1.7212,-1.7157,-1.7149,-1.7143,0,0,0,0,0,-1.7065,-1.7042,-1.7061,-1.7064,-1.7092,-1.71,-1.7104,-1.7137,-1.7158,-1.7149,-1.7173,-1.7201,-1.7211,-1.7225,-1.7228,-1.721,-1.7219,-1.7215,-1.7212,-1.716,-1.7151,-1.7143,0,0,0,0,0,0,-1.7004,-1.7048,-1.7068,-1.7057,-1.7074,-1.711,-1.71,-1.7126,-1.7137,-1.7142,-1.7182,-1.7188,-1.7178,-1.7194,-1.7209,-1.7188,-1.7219,-1.7216,-1.7178,-1.717,-1.7163,-1.7159,-1.7255,0,0,0,0,0,-1.699,-1.6993,-1.7031,-1.7017,-1.7025,-1.7061,-1.7065,-1.7089,-1.7109,-1.7116,-1.714,-1.7157,-1.7165,-1.7168,-1.7177,-1.716,-1.7167,-1.7149,-1.7142,-1.7136,-1.7133,-1.7125,-1.7117,-1.72,-1.72,-1.72,0,0,-1.6959,-1.6983,-1.6983,-1.7005,-1.7022,-1.7024,-1.7066,-1.7067,-1.7069,-1.7116,-1.7114,-1.7131,-1.7154,-1.7143,-1.7139,-1.7156,-1.7112,-1.7132,-1.7127,-1.7127,-1.7121,-1.7113,-1.7106,-1.7198,-1.7198,-1.7199,0,0,-1.6904,-1.6923,-1.6914,-1.693,-1.6955,-1.698,-1.6977,-1.701,-1.7023,-1.7022,-1.7058,-1.7061,-1.7072,-1.7087,-1.7096,-1.7049,-1.7075,-1.705,-1.7013,-1.7005,-1.6999,-1.6993,-1.6976,-1.6969,-1.7047,-1.7047,-1.7047,0,-1.6863,-1.6868,-1.6906,-1.6904,-1.6913,-1.6958,-1.6948,-1.6962,-1.6988,-1.6993,-1.7011,-1.7027,-1.7046,-1.7039,-1.7028,-1.7034,-1.7032,-1.7046,-1.6997,-1.6991,-1.6987,-1.6971,-1.6964,-1.7044,-1.7044,-1.7045,-1.7045,0,-1.6816,-1.6819,-1.6809,-1.6834,-1.6842,-1.6836,-1.6872,-1.6876,-1.69,-1.6922,-1.692,-1.6944,-1.6958,-1.6959,-1.6982,-1.6956,-1.6965,-1.6989,-1.7021,-1.6975,-1.6961,-1.6955,-1.7039,-1.704,-1.7041,-1.7042,0,0,-1.6723,-1.677,-1.6765,-1.6778,-1.6809,-1.6812,-1.6809,-1.6824,-1.6826,-1.6844,-1.6842,-1.6851,-1.6874,-1.6884,-1.691,-1.6903,-1.6864,-1.6928,-1.6929,-1.6915,-1.6837,-1.6817,-1.681,-1.6882,-1.6881,-1.6881,-1.6835,0,-1.6673,-1.6671,-1.6705,-1.6693,-1.6697,-1.674,-1.6737,-1.6756,-1.6778,-1.6784,-1.6807,-1.6813,-1.6844,-1.685,-1.6845,-1.6869,-1.6849,-1.6874,-1.688,-1.688,-1.6872,-1.6802,-1.6782,-1.6737,-1.6829,-1.6828,-1.6828,0,-1.6615,-1.663,-1.6618,-1.6652,-1.6654,-1.6651,-1.6668,-1.6674,-1.6696,-1.6712,-1.6724,-1.6754,-1.6753,-1.6784,-1.6783,-1.6799,-1.6805,-1.6817,-1.6816,-1.6817,-1.685,-1.68,-1.6724,-1.6716,-1.6819,-1.682,-1.6821,0,-1.6548,-1.6565,-1.656,-1.6569,-1.6608,-1.6605,-1.6621,-1.6645,-1.6652,-1.6667,-1.6672,-1.6687,-1.6694,-1.6705,-1.6737,-1.6757,-1.6733,-1.6766,-1.6745,-1.6744,-1.6737,-1.6737,-1.6659,-1.6742,-1.6742,-1.6742,-1.6742,0,-1.6488,-1.6479,-1.6531,-1.6527,-1.6519,-1.6559,-1.6549,-1.6569,-1.6591,-1.6592,-1.6631,-1.6632,-1.6675,-1.6681,-1.6706,-1.6702,-1.6705,-1.6718,-1.6724,-1.6713,-1.6712,-1.6716,-1.672,-1.674,-1.6741,-1.6741,-1.6741,0,-1.6411,-1.6445,-1.6443,-1.648,-1.6489,-1.6481,-1.6513,-1.6512,-1.6537,-1.6538,-1.6541,-1.6579,-1.6587,-1.6621,-1.6638,-1.6655,-1.6642,-1.6656,-1.6634,-1.6638,-1.6616,-1.6617,-1.6537,-1.6529,-1.6617,-1.6616,-1.6616,0,-1.637,-1.6364,-1.6402,-1.6406,-1.642,-1.6427,-1.6435,-1.6474,-1.648,-1.6507,-1.6502,-1.6514,-1.6526,-1.6537,-1.6566,-1.6579,-1.6593,-1.6564,-1.6595,-1.6585,-1.6592,-1.6591,-1.6591,-1.6557,-1.6556,-1.6555,-1.6554,0,-1.6294,-1.6312,-1.6322,-1.6338,-1.6347,-1.6361,-1.6378,-1.6379,-1.6423,-1.6428,-1.6438,-1.6447,-1.6465,-1.6476,-1.6494,-1.6511,-1.6539,-1.6545,-1.654,-1.6529,-1.6516,-1.6522,-1.6615,-1.6546,-1.6547,-1.6547,-1.6548,-1.6548,-1.6234,-1.6231,-1.6257,-1.6267,-1.6284,-1.6299,-1.63,-1.6325,-1.6334,-1.6352,-1.6375,-1.6382,-1.6406,-1.6433,-1.6447,-1.6453,-1.6469,-1.6463,-1.6461,-1.6459,-1.6453,-1.6516,-1.6457,-1.6457,-1.6457,-1.6457,-1.6458,0,-1.616,-1.6179,-1.6188,-1.6211,-1.6219,-1.6247,-1.6267,-1.6272,-1.6277,-1.6298,-1.6309,-1.632,-1.6331,-1.6362,-1.6376,-1.6375,-1.6389,-1.6377,-1.6377,-1.6381,-1.6439,-1.644,-1.6366,-1.6366,-1.6366,-1.6366,-1.6366,-1.6366,-1.6122,-1.6119,-1.6139,-1.6145,-1.6165,-1.6172,-1.6181,-1.6195,-1.6212,-1.6223,-1.6233,-1.6253,-1.6277,-1.6294,-1.6306,-1.6315,-1.6318,-1.6302,-1.6315,-1.6368,-1.6376,-1.6385,-1.6387,-1.6302,-1.6302,-1.6256,-1.6256,-1.6255]},{"header":{"parameterUnit":"m.s-1","parameterCategory":1,"la1":30.2991,"la2":30.254,"lo1":-89.0895,"lo2":-89.0444,"dy":0.0017,"dx":0.0017,"nx":28,"ny":28,"refTime":"2025-07-24T21:00:00:Z","depth":0,"parameterNumber":3,"parameterNumberName":"V-component_of_WINDS"},"data":[0,0,0,0,0,0,0,0,0,0,0,0,0,0,0,0,0,0,0,0,0,0,0,0,0,0,0,0,0,0,0,0,0,0,0,0,0,0,0,0,0,0,0,0,0,0,0,0,0,0,0,0,0,0,0,0,0,0,5.6278,5.6279,0,5.6372,5.6373,5.6374,5.6316,5.6314,5.6311,5.6308,5.6402,5.6407,5.6412,0,0,0,0,0,0,0,0,0,0,0,0,0,5.6044,5.6049,5.6278,5.6279,5.6281,5.6372,5.6373,5.6375,5.6317,5.6314,5.631,5.6307,5.64,5.6406,5.6412,0,0,0,0,0,0,0,0,0,0,0,0,0,5.6143,5.605,5.6278,5.6263,5.6262,5.6372,5.6373,5.6375,5.6318,5.6314,5.6309,5.6306,5.6398,5.6406,5.6413,5.6542,0,0,5.6436,5.6439,0,0,0,0,0,0,0,0,5.6137,5.6151,5.6264,5.6264,5.6264,5.6328,5.6325,5.6431,5.6319,5.6297,5.6308,5.6304,5.6381,5.6389,5.6416,5.6546,5.655,5.6437,5.6441,5.6445,5.6447,0,0,0,0,0,0,0,5.6131,5.6147,5.6315,5.6266,5.6266,5.625,5.6259,5.6345,5.636,5.6298,5.6294,5.6306,5.638,5.6409,5.6418,5.6552,5.6437,5.6443,5.6448,5.6451,5.679,5.6794,0,0,0,0,0,0,5.6125,5.6142,5.6312,5.6318,5.6189,5.6257,5.6268,5.6312,5.6359,5.6363,5.631,5.6303,5.6398,5.6409,5.6421,5.6574,5.6445,5.6452,5.6456,5.6785,5.6791,5.6796,0,0,0,0,0,0,5.6121,5.6141,5.6308,5.6229,5.6249,5.6266,5.6315,5.6316,5.6345,5.6368,5.637,5.6337,5.6395,5.641,5.6512,5.6576,5.6455,5.6462,5.678,5.6787,5.6793,5.6882,0,0,0,0,0,0,5.6114,5.614,5.619,5.6231,5.6254,5.64,5.6319,5.6321,5.6358,5.6351,5.6394,5.6397,5.6393,5.6501,5.6519,5.6584,5.6468,5.6774,5.6783,5.6791,5.6873,5.689,5.6905,0,0,0,0,0,5.6106,5.6211,5.6193,5.6214,5.6317,5.6404,5.6417,5.6411,5.6364,5.6414,5.6428,5.6396,5.6566,5.6512,5.6532,5.6601,5.677,5.6781,5.6791,5.6866,5.6887,5.6905,0,0,0,0,0,0,5.6177,5.6216,5.6197,5.6318,5.6358,5.6394,5.6457,5.6433,5.6487,5.6478,5.6466,5.6477,5.6583,5.6601,5.6541,5.6726,5.6661,5.6675,5.6711,5.6731,5.6747,5.6741,5.6474,0,0,0,0,0,5.6207,5.6276,5.6305,5.6409,5.643,5.644,5.6478,5.6469,5.651,5.6526,5.6548,5.6588,5.665,5.6691,5.675,5.6875,5.6883,5.6931,5.6948,5.6961,5.6974,5.704,5.7062,5.6829,5.6829,5.6828,0,0,5.627,5.6299,5.6343,5.6424,5.6454,5.6524,5.6455,5.6532,5.6583,5.6538,5.6636,5.6653,5.6696,5.681,5.6861,5.6828,5.7039,5.6974,5.6984,5.699,5.7052,5.7074,5.7094,5.6836,5.6834,5.6833,0,0,5.6419,5.6449,5.6539,5.657,5.6616,5.6622,5.6643,5.6682,5.6692,5.679,5.6757,5.6817,5.6924,5.6956,5.6987,5.7146,5.7118,5.7165,5.725,5.7314,5.7333,5.7349,5.7405,5.7426,5.7178,5.7178,5.7178,0,5.6491,5.6596,5.6587,5.6667,5.6703,5.6665,5.6755,5.6785,5.6848,5.6873,5.6836,5.6969,5.6996,5.7116,5.7154,5.718,5.7203,5.7161,5.7331,5.7347,5.7362,5.7416,5.7437,5.7183,5.7183,5.7182,5.7182,0,5.6681,5.6754,5.6821,5.6883,5.6927,5.7011,5.7013,5.7058,5.7045,5.7054,5.7153,5.7183,5.7246,5.7274,5.7262,5.7392,5.737,5.7332,5.7266,5.739,5.744,5.7461,5.7191,5.7189,5.7188,5.7186,0,0,5.6881,5.6936,5.696,5.6988,5.7035,5.7091,5.7172,5.7234,5.7272,5.7316,5.7383,5.7474,5.7439,5.7473,5.7464,5.7521,5.7644,5.7476,5.7476,5.7506,5.7788,5.7816,5.7841,5.7625,5.7629,5.7632,5.7784,0,5.7033,5.7177,5.717,5.7304,5.7371,5.7334,5.7405,5.7441,5.745,5.7507,5.7517,5.7582,5.753,5.7551,5.7605,5.7618,5.7701,5.7607,5.7687,5.769,5.7678,5.7867,5.7898,5.804,5.7804,5.7807,5.7809,0,5.7231,5.7282,5.7423,5.7459,5.7486,5.755,5.7606,5.7661,5.77,5.7703,5.774,5.7722,5.7802,5.7733,5.7843,5.7779,5.7811,5.7821,5.7827,5.7835,5.7758,5.788,5.8085,5.8107,5.784,5.7838,5.7835,0,5.7362,5.7466,5.7563,5.7587,5.7632,5.7677,5.7698,5.7732,5.777,5.7818,5.7842,5.7899,5.793,5.7973,5.7969,5.7919,5.808,5.8011,5.8084,5.8085,5.8121,5.8119,5.8335,5.8141,5.814,5.814,5.814,0,5.7534,5.7621,5.7622,5.7683,5.7779,5.7769,5.7864,5.7879,5.791,5.7971,5.7942,5.8,5.7991,5.8048,5.8045,5.8136,5.815,5.8154,5.8152,5.8157,5.8156,5.8178,5.8168,5.8146,5.8144,5.8143,5.8142,0,5.7697,5.7702,5.7805,5.7839,5.7849,5.7918,5.7946,5.8002,5.8008,5.8085,5.8103,5.8113,5.8178,5.8178,5.8253,5.8251,5.8362,5.8349,5.835,5.8347,5.842,5.8413,5.8658,5.8689,5.8475,5.8477,5.8478,0,5.7807,5.7874,5.7914,5.7953,5.7976,5.804,5.8078,5.8069,5.811,5.8158,5.8208,5.8271,5.8321,5.8427,5.844,5.8496,5.8484,5.8566,5.8492,5.8495,5.8485,5.8482,5.8488,5.858,5.8583,5.8585,5.8586,0,5.8001,5.8,5.8056,5.8114,5.816,5.8204,5.8245,5.8278,5.8274,5.8321,5.8388,5.8427,5.8502,5.8565,5.8619,5.8637,5.8612,5.8609,5.8629,5.8635,5.8633,5.8635,5.8389,5.8604,5.8602,5.8601,5.86,5.8599,5.8141,5.8198,5.8235,5.8299,5.8328,5.8367,5.8421,5.8433,5.8489,5.8551,5.8542,5.8617,5.8651,5.8721,5.8745,5.8802,5.8773,5.8802,5.8809,5.8817,5.8825,5.8623,5.8811,5.8811,5.881,5.881,5.881,0,5.8334,5.8355,5.8414,5.8472,5.8521,5.8492,5.8535,5.8578,5.8644,5.8679,5.8729,5.8805,5.8865,5.8881,5.8939,5.8981,5.897,5.8996,5.8993,5.8998,5.8847,5.8824,5.9004,5.9004,5.9004,5.9004,5.9004,5.9004,5.844,5.8535,5.8537,5.8645,5.8665,5.8739,5.8766,5.88,5.8828,5.8915,5.8964,5.8975,5.9002,5.9061,5.9114,5.9117,5.9139,5.917,5.9169,5.9028,5.9009,5.899,5.8968,5.9175,5.9175,5.9314,5.9316,5.9317]}]]